Lid_Strength_Index
14 15 15 15 15 15 15 15 15 14 14 15 15 15 15 15 14 14 14 14 14 14 14 14 14 14 15 14 14 15 15 14 15 16 15 15 15 16 16 15 15 15 15
15 16 16 16 16 16 16 16 15 15 15 15 15 15 15 15 14 14 14 14 15 15 15 15 15 14 15 15 15 15 15 15 15 16 16 15 15 16 16 16 15 15 15
16 16 17 17 17 17 17 17 16 16 16 16 15 15 15 14 14 14 14 14 15 14 15 15 15 15 15 16 16 16 15 15 15 15 16 16 16 16 16 16 16 16 15
15 16 17 17 17 17 17 17 17 16 16 15 15 14 14 14 14 14 14 14 14 14 14 14 15 15 15 16 15 15 15 15 15 16 16 17 17 16 17 18 18 17 17
14 15 15 16 17 17 17 16 16 16 15 15 15 15 14 14 13 14 14 14 15 15 15 15 14 14 14 14 15 16 16 16 16 17 18 18 18 18 19 19 19 19 18
14 14 14 15 15 16 16 16 16 15 15 15 15 15 15 14 12 12 13 14 15 16 16 16 16 15 14 13 13 14 15 17 18 18 19 19 20 19 19 19 20 21 21
13 13 14 15 15 15 15 16 16 16 15 15 15 15 15 13 11 12 13 14 15 16 16 16 16 15 16 15 14 14 15 15 17 19 20 20 20 20 19 20 21 22 22
13 13 14 14 15 15 16 16 16 16 16 16 15 15 14 13 11 12 14 15 16 16 16 16 16 16 16 17 17 17 18 18 19 19 19 19 19 19 20 21 22 23 23
13 13 14 14 15 16 16 16 16 16 17 16 15 15 15 14 11 12 14 15 16 17 17 17 17 17 15 16 17 18 19 20 19 18 18 18 18 18 19 23 29 30 30
13 14 14 15 15 16 16 16 16 16 16 15 16 15 15 14 12 13 14 16 17 17 17 17 16 17 16 17 18 18 20 21 22 23 23 21 21 21 20 22 23 32 30
14 14 15 15 15 16 16 16 16 16 16 16 16 16 15 15 14 13 14 16 16 18 18 18 17 15 16 17 18 19 20 22 23 25 24 24 24 24 23 23 23 24 27
15 16 16 16 15 16 16 17 16 16 16 16 17 17 17 15 14 13 13 14 15 17 19 19 18 16 17 18 18 18 20 23 26 26 26 26 26 26 25 25 24 24 24
15 15 16 16 16 16 16 17 16 16 16 17 18 18 18 17 15 13 14 15 15 17 18 18 17 17 18 19 19 21 23 25 26 27 27 27 26 26 25 26 25 26 26
16 15 15 16 17 16 16 16 16 16 17 17 18 18 19 18 18 17 16 16 16 18 18 19 19 20 21 23 23 24 24 25 26 27 27 27 27 27 28 27 29 28 31
17 17 17 16 16 16 16 16 16 15 15 17 17 18 19 19 18 16 17 18 20 21 23 23 24 25 25 26 26 26 26 27 27 28 29 30 29 28 29 29 29 33 35
18 17 17 17 16 16 16 16 13 13 12 13 14 16 17 16 15 15 15 16 17 18 26 27 26 26 26 26 27 27 27 28 28 29 30 30 30 31 31 31 31 35 35
18 17 16 16 16 17 17 16 17 14 12 12 13 13 15 15 14 14 14 15 15 19 26 26 26 26 26 26 27 28 28 29 29 30 31 32 32 34 35 35 33 31 34
19 18 18 18 18 17 17 17 17 16 17 16 13 14 14 14 14 14 13 15 21 25 27 27 27 27 27 28 28 29 29 30 31 32 33 37 40 39 39 38 35 38 38
20 20 19 19 19 19 19 18 18 18 20 21 17 17 17 14 14 14 15 23 25 27 28 29 28 29 29 29 29 30 31 33 34 38 41 41 42 42 42 39 37 34 35
23 21 21 21 21 21 21 21 22 22 22 21 21 23 23 21 21 25 26 26 26 26 28 28 29 29 30 31 33 35 38 41 40 40 40 40 41 40 39 41 41 39 39
23 23 22 22 22 22 22 22 23 23 23 24 24 24 22 23 24 25 26 27 27 27 28 28 29 31 33 35 38 39 39 37 38 40 41 40 43 44 41 37 39 39 37
23 23 22 23 23 23 23 23 23 24 24 25 26 24 18 25 25 25 26 26 27 28 30 31 33 34 34 35 36 38 37 37 40 39 40 41 42 43 43 40 39 38 38
24 24 23 22 22 23 24 24 24 24 24 24 25 25 26 25 25 25 26 29 32 33 35 35 35 36 38 38 38 36 36 35 34 37 38 41 41 40 41 39 39 40 39
23 23 24 24 24 23 23 24 24 24 25 25 26 27 27 28 30 31 32 34 35 37 38 37 36 37 38 39 39 37 36 35 39 37 37 38 37 37 40 40 37 35 33
23 23 24 24 25 25 25 26 27 30 31 31 31 30 33 34 35 37 37 38 38 39 37 38 38 36 35 35 36 37 37 30 31 35 37 38 37 38 40 37 33 33 32
25 28 30 29 29 30 30 30 31 31 31 31 32 35 35 35 35 36 37 39 38 37 37 37 37 35 36 35 35 32 32 28 31 31 35 35 35 34 34 33 34 31 30